Location: Nandig?ma
(16.7717°N, 80.2860°E)
Time: 10:52:49
(UTC+00:00)

Cosmos 1140 Rocket - Pass Details

Date: 03 August 2024
Orbit: 741 x 764 km, 74.1° (Epoch: 18 September)

Event Time Altitude Azimuth Distance (km) Brightness Sun altitude
Rises 14:55:56 0° 356° (N) 3,194 7.2 -24.1°
Reaches altitude 10° 14:58:23 10° 2° (N) 2,273 6.2 -24.6°
Enters shadow 15:02:14 40° 40° (NE) 1,098 4.1 -25.4°
